CSA103 YSSY-YMML

Flight info

Callsign CSA103
Flight time 1h 15m
Altitude 40000
Route WOL H65 LEECE Q29 ML
Aircraft A359/H-SDE2E3GHIJ3J4J5LM1ORWXY/LB1D1

Departure

Time 2026-05-06 23:48
Airport Sydney Kingsford Smith International Airport (YSSY)

Arrival

Time 2026-05-07 01:03
Airport Melbourne Airport (YMML)
Time Latitude Longitude Altitude Speed Heading
2026-05-06 22:57 -33.93624 151.16921 36 ft 0 kts 178°
2026-05-06 23:04 -33.93623 151.16921 36 ft 0 kts 178°
2026-05-06 23:28 -33.93622 151.16921 36 ft 0 kts 178°
2026-05-06 23:28 -33.93608 151.16920 35 ft 4 kts 175°
2026-05-06 23:28 -33.93581 151.16916 35 ft 4 kts 167°
2026-05-06 23:29 -33.93555 151.16907 35 ft 4 kts 155°
2026-05-06 23:29 -33.93534 151.16890 36 ft 4 kts 119°
2026-05-06 23:29 -33.93530 151.16874 35 ft 0 kts 78°
2026-05-06 23:34 -33.93530 151.16875 35 ft 3 kts 78°
2026-05-06 23:34 -33.93517 151.16966 36 ft 18 kts 77°
2026-05-06 23:35 -33.93502 151.17042 36 ft 0 kts 77°
2026-05-06 23:35 -33.93502 151.17043 36 ft 1 kts 77°
2026-05-06 23:35 -33.93503 151.17075 36 ft 5 kts 108°
2026-05-06 23:36 -33.93539 151.17107 36 ft 10 kts 153°
2026-05-06 23:36 -33.93626 151.17134 35 ft 17 kts 168°
2026-05-06 23:36 -33.93768 151.17170 35 ft 25 kts 167°
2026-05-06 23:36 -33.93960 151.17223 35 ft 31 kts 167°
2026-05-06 23:37 -33.94164 151.17276 35 ft 30 kts 168°
2026-05-06 23:37 -33.94365 151.17327 37 ft 26 kts 168°
2026-05-06 23:37 -33.94553 151.17377 37 ft 29 kts 167°
2026-05-06 23:37 -33.94764 151.17432 36 ft 32 kts 168°
2026-05-06 23:38 -33.94994 151.17491 36 ft 35 kts 168°
2026-05-06 23:38 -33.95240 151.17556 35 ft 37 kts 167°
2026-05-06 23:38 -33.95498 151.17622 36 ft 39 kts 168°
2026-05-06 23:38 -33.95767 151.17692 37 ft 39 kts 168°
2026-05-06 23:39 -33.95920 151.17731 36 ft 18 kts 168°
2026-05-06 23:39 -33.95957 151.17741 36 ft 0 kts 165°
2026-05-06 23:39 -33.95959 151.17743 36 ft 0 kts 150°
2026-05-06 23:39 -33.95960 151.17749 36 ft 1 kts 125°
2026-05-06 23:40 -33.95959 151.17757 36 ft 1 kts 83°
2026-05-06 23:40 -33.95951 151.17763 36 ft 1 kts 34°
2026-05-06 23:40 -33.95941 151.17760 36 ft 4 kts 352°
2026-05-06 23:40 -33.95889 151.17739 36 ft 13 kts 340°
2026-05-06 23:41 -33.95776 151.17695 36 ft 21 kts 347°
2026-05-06 23:41 -33.95609 151.17649 36 ft 29 kts 347°
2026-05-06 23:41 -33.95409 151.17595 36 ft 30 kts 348°
2026-05-06 23:41 -33.95269 151.17632 35 ft 18 kts 45°
2026-05-06 23:42 -33.95241 151.17734 35 ft 15 kts 76°
2026-05-06 23:42 -33.95212 151.17884 36 ft 22 kts 77°
2026-05-06 23:42 -33.95177 151.18081 37 ft 25 kts 78°
2026-05-06 23:42 -33.95136 151.18307 37 ft 26 kts 77°
2026-05-06 23:43 -33.95117 151.18515 37 ft 23 kts 105°
2026-05-06 23:43 -33.95230 151.18666 36 ft 27 kts 145°
2026-05-06 23:43 -33.95419 151.18745 36 ft 32 kts 167°
2026-05-06 23:43 -33.95656 151.18807 36 ft 38 kts 168°
2026-05-06 23:44 -33.95934 151.18879 36 ft 42 kts 168°
2026-05-06 23:44 -33.96219 151.18953 36 ft 41 kts 168°
2026-05-06 23:44 -33.96495 151.19026 36 ft 38 kts 167°
2026-05-06 23:44 -33.96688 151.19072 36 ft 20 kts 174°
2026-05-06 23:45 -33.96825 151.19070 36 ft 20 kts 173°
2026-05-06 23:45 -33.96968 151.19104 36 ft 22 kts 168°
2026-05-06 23:45 -33.97085 151.19140 36 ft 13 kts 153°
2026-05-06 23:45 -33.97117 151.19214 36 ft 10 kts 88°
2026-05-06 23:46 -33.97098 151.19313 33 ft 14 kts 63°
2026-05-06 23:46 -33.97031 151.19360 31 ft 9 kts 356°
2026-05-06 23:46 -33.96997 151.19353 31 ft 0 kts 348°
2026-05-06 23:46 -33.96995 151.19353 31 ft 0 kts 348°
2026-05-06 23:47 -33.96947 151.19340 30 ft 35 kts 348°
2026-05-06 23:47 -33.96390 151.19195 31 ft 126 kts 348°
2026-05-06 23:47 -33.95302 151.18920 305 ft 179 kts 351°
2026-05-06 23:48 -33.94038 151.18739 1170 ft 186 kts 17°
2026-05-06 23:48 -33.92870 151.19459 2315 ft 185 kts 34°
2026-05-06 23:48 -33.91628 151.19657 3650 ft 187 kts 349°
2026-05-06 23:48 -33.90520 151.18811 4761 ft 193 kts 322°
2026-05-06 23:49 -33.89403 151.17917 5660 ft 192 kts 347°
2026-05-06 23:49 -33.88075 151.17825 6449 ft 199 kts
2026-05-06 23:49 -33.86665 151.18254 6838 ft 218 kts 28°
2026-05-06 23:49 -33.85543 151.19519 6953 ft 240 kts 62°
2026-05-06 23:50 -33.85252 151.21589 6976 ft 262 kts 97°
2026-05-06 23:50 -33.85658 151.26034 8019 ft 270 kts 92°
2026-05-06 23:50 -33.85861 151.28290 8641 ft 273 kts 95°
2026-05-06 23:51 -33.86199 151.30557 9236 ft 277 kts 100°
2026-05-06 23:51 -33.86674 151.32815 9832 ft 281 kts 104°
2026-05-06 23:51 -33.87290 151.35070 10285 ft 290 kts 108°
2026-05-06 23:51 -33.88149 151.37330 10547 ft 305 kts 115°
2026-05-06 23:52 -33.89268 151.39580 10804 ft 320 kts 120°
2026-05-06 23:52 -33.90370 151.41957 11035 ft 330 kts 113°
2026-05-06 23:52 -33.91382 151.44492 11250 ft 342 kts 115°
2026-05-06 23:52 -33.92727 151.46913 11529 ft 354 kts 128°
2026-05-06 23:53 -33.94578 151.48906 11920 ft 363 kts 144°
2026-05-06 23:53 -33.96791 151.50403 12337 ft 369 kts 153°
2026-05-06 23:53 -33.99264 151.51310 12735 ft 376 kts 168°
2026-05-06 23:53 -34.01891 151.51317 13144 ft 383 kts 187°
2026-05-06 23:54 -34.03605 151.50758 13406 ft 388 kts 200°
2026-05-06 23:54 -34.05917 151.49072 13794 ft 393 kts 220°
2026-05-06 23:54 -34.07811 151.46679 14196 ft 396 kts 229°
2026-05-06 23:54 -34.09598 151.44140 14585 ft 398 kts 229°
2026-05-06 23:55 -34.11396 151.41582 14976 ft 400 kts 229°
2026-05-06 23:55 -34.13208 151.39025 15364 ft 402 kts 229°
2026-05-06 23:55 -34.15040 151.36452 15750 ft 405 kts 229°
2026-05-06 23:55 -34.16878 151.33877 16126 ft 407 kts 229°
2026-05-06 23:56 -34.18733 151.31280 16495 ft 409 kts 229°
2026-05-06 23:56 -34.20600 151.28669 16858 ft 411 kts 229°
2026-05-06 23:56 -34.22474 151.26046 17223 ft 413 kts 229°
2026-05-06 23:56 -34.24358 151.23409 17582 ft 416 kts 229°
2026-05-06 23:57 -34.26251 151.20756 17939 ft 418 kts 229°
2026-05-06 23:57 -34.28151 151.18093 18271 ft 420 kts 229°
2026-05-06 23:57 -34.30061 151.15413 18622 ft 422 kts 229°
2026-05-06 23:57 -34.31985 151.12712 18949 ft 424 kts 229°
2026-05-06 23:58 -34.33912 151.10005 19281 ft 426 kts 229°
2026-05-06 23:58 -34.35850 151.07281 19597 ft 428 kts 229°
2026-05-06 23:58 -34.37798 151.04538 19922 ft 430 kts 229°
2026-05-06 23:58 -34.39779 151.01749 20240 ft 432 kts 229°
2026-05-06 23:59 -34.41713 150.99024 20541 ft 434 kts 229°
2026-05-06 23:59 -34.43685 150.96242 20842 ft 436 kts 229°
2026-05-06 23:59 -34.45665 150.93447 21133 ft 438 kts 229°
2026-05-06 23:59 -34.47648 150.90645 21421 ft 440 kts 229°
2026-05-07 00:00 -34.49648 150.87818 21722 ft 442 kts 229°
2026-05-07 00:00 -34.51651 150.84984 22004 ft 443 kts 229°
2026-05-07 00:00 -34.53659 150.82141 22281 ft 445 kts 229°
2026-05-07 00:00 -34.55607 150.79213 22532 ft 447 kts 234°
2026-05-07 00:01 -34.57304 150.76048 22807 ft 449 kts 238°
2026-05-07 00:01 -34.58889 150.72763 23082 ft 451 kts 240°
2026-05-07 00:01 -34.60414 150.69437 23352 ft 453 kts 241°
2026-05-07 00:01 -34.61929 150.66072 23611 ft 454 kts 241°
2026-05-07 00:02 -34.63446 150.62700 23863 ft 456 kts 241°
2026-05-07 00:02 -34.64976 150.59322 24113 ft 458 kts 241°
2026-05-07 00:02 -34.66525 150.55926 24362 ft 460 kts 241°
2026-05-07 00:02 -34.68081 150.52533 24604 ft 461 kts 241°
2026-05-07 00:03 -34.69649 150.49123 24864 ft 463 kts 241°
2026-05-07 00:03 -34.71227 150.45696 25108 ft 465 kts 240°
2026-05-07 00:03 -34.72806 150.42263 25347 ft 466 kts 241°
2026-05-07 00:03 -34.74388 150.38820 25603 ft 468 kts 241°
2026-05-07 00:04 -34.75976 150.35359 25859 ft 470 kts 241°
2026-05-07 00:04 -34.77569 150.31883 26106 ft 472 kts 241°
2026-05-07 00:04 -34.79168 150.28390 26357 ft 473 kts 241°
2026-05-07 00:04 -34.80771 150.24884 26617 ft 475 kts 241°
2026-05-07 00:05 -34.82382 150.21357 26868 ft 477 kts 241°
2026-05-07 00:05 -34.83994 150.17822 27103 ft 479 kts 241°
2026-05-07 00:05 -34.85612 150.14271 27354 ft 481 kts 241°
2026-05-07 00:05 -34.87233 150.10708 27615 ft 482 kts 241°
2026-05-07 00:06 -34.88862 150.07127 27861 ft 484 kts 241°
2026-05-07 00:06 -34.90498 150.03526 28113 ft 486 kts 241°
2026-05-07 00:06 -34.92138 149.99912 28369 ft 488 kts 241°
2026-05-07 00:06 -34.93782 149.96287 28613 ft 489 kts 241°
2026-05-07 00:07 -34.95428 149.92652 28849 ft 491 kts 241°
2026-05-07 00:07 -34.97078 149.89006 29088 ft 493 kts 241°
2026-05-07 00:07 -34.98739 149.85330 29336 ft 495 kts 241°
2026-05-07 00:07 -35.00402 149.81646 29563 ft 497 kts 241°
2026-05-07 00:08 -35.02070 149.77947 29816 ft 498 kts 241°
2026-05-07 00:08 -35.03739 149.74241 30066 ft 500 kts 241°
2026-05-07 00:08 -35.05418 149.70510 30308 ft 502 kts 241°
2026-05-07 00:08 -35.07101 149.66774 30553 ft 504 kts 241°
2026-05-07 00:09 -35.08792 149.63011 30812 ft 506 kts 241°
2026-05-07 00:09 -35.10481 149.59244 31073 ft 508 kts 241°
2026-05-07 00:09 -35.12181 149.55446 31286 ft 510 kts 241°
2026-05-07 00:09 -35.13880 149.51646 31527 ft 511 kts 241°
2026-05-07 00:10 -35.15586 149.47828 31747 ft 513 kts 241°
2026-05-07 00:10 -35.17299 149.43991 31958 ft 515 kts 241°
2026-05-07 00:10 -35.19015 149.40141 32162 ft 517 kts 241°
2026-05-07 00:10 -35.20738 149.36275 32368 ft 518 kts 241°
2026-05-07 00:11 -35.22463 149.32396 32571 ft 520 kts 242°
2026-05-07 00:11 -35.24167 149.28565 32755 ft 521 kts 242°
2026-05-07 00:11 -35.25924 149.24607 32943 ft 523 kts 242°
2026-05-07 00:11 -35.27681 149.20708 33111 ft 524 kts 239°
2026-05-07 00:12 -35.29716 149.17079 33287 ft 525 kts 234°
2026-05-07 00:12 -35.31864 149.13459 33459 ft 527 kts 233°
2026-05-07 00:12 -35.34033 149.09835 33666 ft 527 kts 233°
2026-05-07 00:12 -35.36232 149.06165 33912 ft 527 kts 233°
2026-05-07 00:13 -35.40535 148.98986 33965 ft 526 kts 233°
2026-05-07 00:13 -35.44865 148.91752 33964 ft 527 kts 233°
2026-05-07 00:14 -35.49199 148.84499 33961 ft 527 kts 233°
2026-05-07 00:14 -35.53523 148.77248 33964 ft 527 kts 233°
2026-05-07 00:15 -35.57844 148.69987 33963 ft 527 kts 233°
2026-05-07 00:15 -35.62165 148.62710 33960 ft 527 kts 233°
2026-05-07 00:16 -35.66479 148.55430 33962 ft 527 kts 233°
2026-05-07 00:16 -35.70788 148.48143 33960 ft 527 kts 233°
2026-05-07 00:17 -35.75093 148.40849 33964 ft 527 kts 234°
2026-05-07 00:17 -35.79391 148.33549 33957 ft 527 kts 234°
2026-05-07 00:18 -35.83685 148.26243 33959 ft 527 kts 234°
2026-05-07 00:18 -35.87941 148.18985 33965 ft 519 kts 234°
2026-05-07 00:19 -35.92154 148.11785 33965 ft 517 kts 234°
2026-05-07 00:19 -35.96357 148.04587 33962 ft 517 kts 234°
2026-05-07 00:20 -36.00555 147.97384 33965 ft 517 kts 234°
2026-05-07 00:20 -36.04751 147.90169 33963 ft 517 kts 234°
2026-05-07 00:21 -36.08935 147.82958 33959 ft 517 kts 234°
2026-05-07 00:21 -36.13122 147.75728 33963 ft 517 kts 234°
2026-05-07 00:22 -36.17305 147.68489 33960 ft 517 kts 234°
2026-05-07 00:22 -36.21480 147.61249 33957 ft 517 kts 234°
2026-05-07 00:23 -36.25653 147.53998 33962 ft 517 kts 234°
2026-05-07 00:23 -36.29791 147.46791 33961 ft 517 kts 234°
2026-05-07 00:24 -36.33954 147.39526 33962 ft 517 kts 234°
2026-05-07 00:24 -36.38109 147.32259 33961 ft 517 kts 234°
2026-05-07 00:25 -36.42264 147.24977 33965 ft 517 kts 234°
2026-05-07 00:25 -36.46414 147.17689 33964 ft 517 kts 234°
2026-05-07 00:26 -36.50554 147.10401 33965 ft 517 kts 234°
2026-05-07 00:26 -36.54696 147.03096 33965 ft 517 kts 234°
2026-05-07 00:27 -36.58834 146.95781 33962 ft 517 kts 234°
2026-05-07 00:27 -36.62963 146.88464 33813 ft 519 kts 234°
2026-05-07 00:28 -36.65050 146.84763 33569 ft 525 kts 234°
2026-05-07 00:28 -36.67147 146.81038 33320 ft 527 kts 234°
2026-05-07 00:28 -36.69256 146.77289 33071 ft 528 kts 234°
2026-05-07 00:28 -36.71365 146.73534 32820 ft 529 kts 235°
2026-05-07 00:29 -36.73473 146.69777 32509 ft 528 kts 235°
2026-05-07 00:29 -36.75568 146.66039 31613 ft 527 kts 235°
2026-05-07 00:30 -36.81874 146.54764 28999 ft 523 kts 235°
2026-05-07 00:30 -36.83938 146.51063 28322 ft 518 kts 235°
2026-05-07 00:30 -36.85990 146.47382 27654 ft 513 kts 235°
2026-05-07 00:30 -36.87950 146.43852 27982 ft 494 kts 229°
2026-05-07 00:31 -36.89791 146.40500 27718 ft 443 kts 227°
2026-05-07 00:31 -36.91482 146.37424 27308 ft 418 kts 226°
2026-05-07 00:31 -36.93098 146.34508 26196 ft 403 kts 226°
2026-05-07 00:31 -36.94692 146.31653 24846 ft 396 kts 225°
2026-05-07 00:32 -36.96212 146.28907 24351 ft 369 kts 225°
2026-05-07 00:32 -36.97612 146.26357 23992 ft 346 kts 224°
2026-05-07 00:32 -36.99000 146.23870 23508 ft 350 kts 224°
2026-05-07 00:32 -37.00406 146.21362 23044 ft 355 kts 224°
2026-05-07 00:33 -37.01814 146.18835 22546 ft 351 kts 224°
2026-05-07 00:33 -37.03188 146.16347 22070 ft 346 kts 225°
2026-05-07 00:33 -37.04564 146.13862 21598 ft 348 kts 225°
2026-05-07 00:33 -37.05939 146.11374 21119 ft 347 kts 226°
2026-05-07 00:34 -37.07305 146.08898 20647 ft 346 kts 226°
2026-05-07 00:34 -37.08669 146.06420 20165 ft 344 kts 227°
2026-05-07 00:34 -37.10025 146.03957 19652 ft 343 kts 226°
2026-05-07 00:34 -37.11357 146.01548 18549 ft 345 kts 237°
2026-05-07 00:35 -37.12789 145.98917 18396 ft 374 kts 237°
2026-05-07 00:35 -37.14254 145.96238 18087 ft 369 kts 236°
2026-05-07 00:35 -37.15702 145.93602 17482 ft 368 kts 236°
2026-05-07 00:35 -37.17134 145.90986 17621 ft 376 kts 230°
2026-05-07 00:36 -37.18552 145.88387 17618 ft 353 kts 229°
2026-05-07 00:36 -37.19910 145.85895 17150 ft 342 kts 229°
2026-05-07 00:36 -37.21269 145.83428 16003 ft 348 kts 230°
2026-05-07 00:36 -37.22669 145.80896 14928 ft 356 kts 232°
2026-05-07 00:37 -37.24055 145.78360 14345 ft 349 kts 233°
2026-05-07 00:37 -37.25408 145.75867 13824 ft 342 kts 233°
2026-05-07 00:37 -37.26737 145.73421 13297 ft 336 kts 233°
2026-05-07 00:37 -37.28045 145.71019 12771 ft 330 kts 233°
2026-05-07 00:38 -37.29328 145.68662 12256 ft 325 kts 233°
2026-05-07 00:38 -37.30591 145.66341 11768 ft 319 kts 233°
2026-05-07 00:38 -37.31435 145.64839 11457 ft 315 kts 232°
2026-05-07 00:38 -37.33138 145.61916 11006 ft 302 kts 231°
2026-05-07 00:39 -37.33946 145.60529 10922 ft 292 kts 231°
2026-05-07 00:39 -37.35113 145.58523 10749 ft 277 kts 231°
2026-05-07 00:39 -37.36226 145.56610 10567 ft 265 kts 231°
2026-05-07 00:39 -37.37287 145.54778 10401 ft 253 kts 231°
2026-05-07 00:40 -37.38297 145.53033 10279 ft 242 kts 231°
2026-05-07 00:40 -37.39267 145.51355 10126 ft 233 kts 230°
2026-05-07 00:40 -37.40205 145.49731 9987 ft 227 kts 231°
2026-05-07 00:40 -37.41168 145.48069 9917 ft 243 kts 230°
2026-05-07 00:41 -37.42178 145.46323 9851 ft 248 kts 231°
2026-05-07 00:41 -37.43192 145.44563 9612 ft 249 kts 231°
2026-05-07 00:41 -37.44202 145.42806 9193 ft 247 kts 231°
2026-05-07 00:41 -37.45207 145.41062 8966 ft 245 kts 230°
2026-05-07 00:42 -37.46207 145.39330 8629 ft 244 kts 231°
2026-05-07 00:42 -37.47198 145.37595 8341 ft 244 kts 231°
2026-05-07 00:42 -37.48184 145.35868 8083 ft 241 kts 231°
2026-05-07 00:42 -37.49140 145.34197 7890 ft 230 kts 231°
2026-05-07 00:43 -37.50057 145.32594 7654 ft 223 kts 230°
2026-05-07 00:43 -37.50965 145.31010 7407 ft 218 kts 231°
2026-05-07 00:43 -37.51855 145.29461 7163 ft 218 kts 231°
2026-05-07 00:43 -37.52740 145.27918 6921 ft 216 kts 231°
2026-05-07 00:44 -37.53617 145.26383 6654 ft 217 kts 231°
2026-05-07 00:44 -37.54485 145.24870 6420 ft 215 kts 230°
2026-05-07 00:44 -37.55356 145.23349 6178 ft 214 kts 230°
2026-05-07 00:44 -37.56227 145.21838 5875 ft 212 kts 231°
2026-05-07 00:45 -37.57089 145.20326 5617 ft 212 kts 231°
2026-05-07 00:45 -37.57948 145.18816 5401 ft 212 kts 231°
2026-05-07 00:45 -37.58819 145.17284 5150 ft 211 kts 231°
2026-05-07 00:45 -37.59662 145.15805 4909 ft 210 kts 231°
2026-05-07 00:46 -37.60513 145.14310 4680 ft 210 kts 231°
2026-05-07 00:46 -37.61364 145.12822 4441 ft 209 kts 231°
2026-05-07 00:46 -37.62218 145.11335 4211 ft 209 kts 232°
2026-05-07 00:46 -37.63066 145.09843 4039 ft 209 kts 232°
2026-05-07 00:47 -37.63911 145.08358 3997 ft 207 kts 233°
2026-05-07 00:47 -37.64713 145.06945 3986 ft 190 kts 232°
2026-05-07 00:47 -37.65448 145.05648 3986 ft 173 kts 232°
2026-05-07 00:47 -37.66129 145.04449 3994 ft 166 kts 232°
2026-05-07 00:48 -37.66733 145.03219 4027 ft 164 kts 241°
2026-05-07 00:48 -37.67062 145.01827 3994 ft 169 kts 256°
2026-05-07 00:48 -37.67085 145.00325 3980 ft 173 kts 265°
2026-05-07 00:48 -37.67026 144.98831 3988 ft 164 kts 264°
2026-05-07 00:49 -37.66946 144.97477 3979 ft 146 kts 265°
2026-05-07 00:49 -37.66867 144.96290 3978 ft 126 kts 263°
2026-05-07 00:49 -37.66812 144.95213 3998 ft 123 kts 263°
2026-05-07 00:49 -37.66761 144.94132 4000 ft 124 kts 263°
2026-05-07 00:50 -37.66703 144.93041 3998 ft 125 kts 264°
2026-05-07 00:50 -37.66640 144.91956 3996 ft 124 kts 263°
2026-05-07 00:50 -37.66577 144.90875 4001 ft 125 kts 263°
2026-05-07 00:50 -37.66513 144.89775 3999 ft 125 kts 263°
2026-05-07 00:51 -37.66450 144.88685 3992 ft 125 kts 263°
2026-05-07 00:51 -37.66554 144.87649 3971 ft 116 kts 234°
2026-05-07 00:51 -37.67232 144.87189 3999 ft 118 kts 188°
2026-05-07 00:51 -37.68053 144.87361 4001 ft 121 kts 174°
2026-05-07 00:52 -37.68858 144.87679 3994 ft 121 kts 172°
2026-05-07 00:52 -37.69652 144.88029 3994 ft 123 kts 169°
2026-05-07 00:52 -37.70285 144.88850 3996 ft 145 kts 124°
2026-05-07 00:52 -37.70321 144.90177 4003 ft 161 kts 80°
2026-05-07 00:53 -37.69968 144.91529 4003 ft 166 kts 80°
2026-05-07 00:53 -37.69590 144.93093 4005 ft 210 kts 79°
2026-05-07 00:53 -37.69211 144.95066 4007 ft 246 kts 84°
2026-05-07 00:53 -37.68894 144.97239 3994 ft 254 kts 87°
2026-05-07 00:54 -37.68870 144.99445 3998 ft 250 kts 100°
2026-05-07 00:54 -37.68984 145.01622 3827 ft 248 kts 98°
2026-05-07 00:54 -37.68994 145.03805 3547 ft 247 kts 95°
2026-05-07 00:54 -37.68976 145.05929 3417 ft 238 kts 95°
2026-05-07 00:55 -37.68961 145.07983 3262 ft 230 kts 95°
2026-05-07 00:55 -37.69048 145.09964 3046 ft 222 kts 104°
2026-05-07 00:55 -37.69303 145.11868 3010 ft 220 kts 107°
2026-05-07 00:55 -37.69364 145.13808 3018 ft 228 kts 83°
2026-05-07 00:56 -37.68640 145.15597 3008 ft 233 kts 47°
2026-05-07 00:56 -37.67418 145.16924 3002 ft 232 kts 30°
2026-05-07 00:56 -37.65934 145.17512 2988 ft 214 kts 354°
2026-05-07 00:56 -37.64657 145.16940 3008 ft 186 kts 311°
2026-05-07 00:57 -37.64083 145.15636 3008 ft 165 kts 267°
2026-05-07 00:57 -37.64241 145.14229 3001 ft 162 kts 249°
2026-05-07 00:57 -37.64580 145.12866 3007 ft 163 kts 248°
2026-05-07 00:57 -37.64938 145.11495 3004 ft 165 kts 248°
2026-05-07 00:58 -37.65290 145.10114 2997 ft 165 kts 249°
2026-05-07 00:58 -37.65637 145.08734 3002 ft 164 kts 249°
2026-05-07 00:58 -37.65980 145.07364 3005 ft 164 kts 249°
2026-05-07 00:58 -37.66322 145.05995 3002 ft 164 kts 248°
2026-05-07 00:59 -37.66997 145.03237 2995 ft 165 kts 251°
2026-05-07 00:59 -37.67132 145.01800 2994 ft 168 kts 264°
2026-05-07 00:59 -37.67095 145.00372 2913 ft 155 kts 264°
2026-05-07 01:00 -37.67042 144.99074 2728 ft 147 kts 263°
2026-05-07 01:00 -37.66977 144.97797 2525 ft 144 kts 265°
2026-05-07 01:00 -37.66901 144.96577 2304 ft 134 kts 265°
2026-05-07 01:00 -37.66837 144.95442 2125 ft 126 kts 264°
2026-05-07 01:01 -37.66778 144.94366 1953 ft 120 kts 264°
2026-05-07 01:01 -37.66720 144.93328 1789 ft 119 kts 264°
2026-05-07 01:01 -37.66660 144.92297 1624 ft 116 kts 264°
2026-05-07 01:01 -37.66600 144.91309 1458 ft 109 kts 264°
2026-05-07 01:02 -37.66547 144.90350 1292 ft 108 kts 267°
2026-05-07 01:02 -37.66492 144.89394 1171 ft 112 kts 269°
2026-05-07 01:02 -37.66435 144.88411 1051 ft 122 kts 270°
2026-05-07 01:02 -37.66369 144.87288 840 ft 127 kts 272°
2026-05-07 01:03 -37.66318 144.86168 640 ft 127 kts 272°
2026-05-07 01:03 -37.66238 144.85004 500 ft 135 kts 273°
2026-05-07 01:03 -37.66172 144.83881 422 ft 124 kts 271°
2026-05-07 01:03 -37.66134 144.83076 412 ft 33 kts 267°
2026-05-07 01:04 -37.66164 144.82953 414 ft 16 kts 248°
2026-05-07 01:04 -37.66218 144.82810 404 ft 10 kts 243°
2026-05-07 01:04 -37.66268 144.82717 397 ft 18 kts 223°
2026-05-07 01:04 -37.66393 144.82699 389 ft 18 kts 152°
2026-05-07 01:05 -37.66449 144.82850 392 ft 24 kts 97°
2026-05-07 01:05 -37.66463 144.83088 400 ft 31 kts 94°
2026-05-07 01:05 -37.66479 144.83365 404 ft 22 kts 94°
2026-05-07 01:05 -37.66492 144.83595 408 ft 30 kts 94°
2026-05-07 01:06 -37.66506 144.83806 404 ft 16 kts 94°
2026-05-07 01:06 -37.66547 144.83933 401 ft 15 kts 153°
2026-05-07 01:06 -37.66689 144.83965 399 ft 28 kts 172°
2026-05-07 01:06 -37.66895 144.84002 391 ft 16 kts 172°
2026-05-07 01:07 -37.66990 144.84020 392 ft 21 kts 172°
2026-05-07 01:07 -37.67168 144.84054 386 ft 25 kts 171°
2026-05-07 01:07 -37.67304 144.84080 383 ft 17 kts 171°
2026-05-07 01:07 -37.67432 144.84105 379 ft 6 kts 170°
2026-05-07 01:08 -37.67491 144.84154 378 ft 10 kts 122°
2026-05-07 01:08 -37.67493 144.84243 380 ft 14 kts 82°
2026-05-07 01:08 -37.67481 144.84344 382 ft 12 kts 80°
2026-05-07 01:08 -37.67474 144.84395 383 ft 4 kts 80°
2026-05-07 01:09 -37.67468 144.84439 384 ft 2 kts 79°
2026-05-07 01:09 -37.67459 144.84500 385 ft 7 kts 79°
2026-05-07 01:09 -37.67448 144.84598 387 ft 10 kts 78°
2026-05-07 01:09 -37.67420 144.84631 388 ft 6 kts 11°
2026-05-07 01:10 -37.67378 144.84632 389 ft 2 kts 358°
2026-05-07 01:10 -37.67361 144.84630 389 ft 1 kts 354°